FW0794 Weather Reports


Display with metric or nautical units.
time (UTC)temp
F
wind
direction
speed
MPH
gust
MPH
rain 1hr
in
rain 24hr
in
rain mn
in
humidity
%
barometer
mb
20260507024534 67 44 0.0 0.0 0.00 0.00 0.00 73 974.8
20260507023031 67 262 0.0 0.0 0.00 0.00 0.00 71 974.8
20260507021531 68 238 0.0 0.0 0.00 0.00 0.00 69 974.8
20260507020033 69 256 0.0 0.0 0.00 0.00 0.00 67 974.8
20260507014529 72 227 0.0 0.0 0.00 0.00 0.00 64 974.8
20260507013035 72 273 0.0 0.0 0.00 0.00 0.00 65 974.8
20260507011536 72 244 0.0 0.0 0.00 0.00 0.00 65 974.8
20260507010028 73 257 0.0 0.0 0.00 0.00 0.00 63 974.8
20260507004525 73 246 0.0 0.0 0.00 0.00 0.00 64 974.8
20260507003024 73 259 0.0 0.0 0.00 0.00 0.00 63 974.8
20260507001523 73 237 0.0 0.0 0.00 0.00 0.00 63 974.8
20260507000023 73 259 0.0 0.0 0.00 0.00 0.00 63 974.8
20260506234528 73 229 0.0 0.0 0.00 0.00 0.00 63 974.8
20260506233021 73 270 0.0 0.0 0.00 0.00 0.00 62 974.8
20260506231519 73 263 0.0 0.0 0.00 0.00 0.00 62 974.8
20260506230015 73 227 0.0 0.0 0.00 0.00 0.00 63 974.8
20260506224524 72 304 0.0 0.0 0.00 0.00 0.00 63 974.8
20260506223015 72 186 0.0 0.0 0.00 0.00 0.00 63 974.8
20260506221512 72 297 0.0 0.0 0.00 0.00 0.00 63 974.8
20260506220012 72 285 0.0 0.0 0.00 0.00 0.00 61 974.8
20260506214511 72 294 0.0 0.0 0.00 0.00 0.00 61 974.8
20260506213019 72 249 0.0 0.0 0.00 0.00 0.00 61 974.8
20260506211515 72 260 0.0 0.0 0.00 0.00 0.00 61 974.8
20260506210007 72 259 0.0 0.0 0.00 0.00 0.00 62 974.8
20260506204505 71 208 0.0 0.0 0.00 0.00 0.00 63 974.8
20260506203001 70 290 0.0 0.0 0.00 0.00 0.00 64 974.8
20260506201559 70 261 0.0 0.0 0.00 0.00 0.00 64 974.8
20260506200056 69 311 0.0 0.0 0.00 0.00 0.00 65 974.8
20260506194553 68 236 0.0 0.0 0.00 0.00 0.00 66 974.8
20260506193051 68 250 0.0 0.0 0.00 0.00 0.00 65 974.8
20260506191552 67 244 0.0 0.0 0.00 0.00 0.00 66 974.8
20260506190049 67 199 0.0 0.0 0.00 0.00 0.00 67 974.8
20260506184552 67 248 0.0 0.0 0.00 0.00 0.00 67 974.8
20260506183039 66 259 0.0 0.0 0.00 0.00 0.00 69 974.8
20260506181538 65 261 0.0 0.0 0.00 0.00 0.00 69 974.8
20260506180035 65 269 0.0 0.0 0.00 0.00 0.00 69 974.8
20260506174530 65 247 0.0 0.0 0.00 0.00 0.00 70 974.8
20260506173032 65 232 0.0 0.0 0.00 0.00 0.00 71 974.8
20260506171523 65 161 0.0 0.0 0.00 0.00 0.00 72 974.8
20260506170021 64 250 0.0 0.0 0.00 0.00 0.00 72 974.8
20260506164516 64 159 0.0 0.0 0.00 0.00 0.00 74 974.8
20260506163027 64 186 0.0 0.0 0.00 0.00 0.00 74 974.8
20260506161512 63 153 0.0 0.0 0.00 0.00 0.00 76 974.8
20260506160007 62 205 0.0 0.0 0.00 0.00 0.00 77 974.8
20260506154516 61 130 0.0 0.0 0.00 0.00 0.00 79 974.8
20260506153001 60 86 0.0 0.0 0.00 0.00 0.00 80 974.8
20260506151558 59 46 0.0 0.0 0.00 0.00 0.00 82 974.8
20260506150056 58 29 0.0 0.0 0.00 0.00 0.00 84 974.8
20260506144555 57 30 0.0 0.0 0.00 0.00 0.00 84 974.8
20260506143054 56 30 0.0 0.0 0.00 0.00 0.00 85 974.8
20260506141551 56 30 0.0 0.0 0.00 0.00 0.00 85 974.8
20260506140048 56 30 0.0 0.0 0.00 0.00 0.00 85 974.8
20260506134546 56 30 0.0 0.0 0.00 0.00 0.00 85 974.8
20260506133047 56 30 0.0 0.0 0.00 0.00 0.00 85 974.8
20260506131544 56 28 0.0 0.0 0.00 0.00 0.00 86 974.8
20260506130043 55 28 0.0 0.0 0.00 0.00 0.00 86 974.8
20260506124545 55 28 0.0 0.0 0.00 0.00 0.00 86 974.8
20260506123042 55 28 0.0 0.0 0.00 0.00 0.00 86 974.8
20260506121550 55 28 0.0 0.0 0.00 0.00 0.00 86 974.8
20260506120042 55 28 0.0 0.0 0.00 0.00 0.00 86 974.8
20260506114541 55 28 0.0 0.0 0.00 0.00 0.00 87 974.8
20260506113040 55 28 0.0 0.0 0.00 0.00 0.00 87 974.8
20260506111539 55 28 0.0 0.0 0.00 0.00 0.00 86 974.8
20260506110041 55 28 0.0 0.0 0.00 0.00 0.00 86 974.8
20260506104539 55 28 0.0 0.0 0.00 0.00 0.00 86 974.8
20260506103037 55 28 0.0 0.0 0.00 0.00 0.00 86 974.8
20260506101537 54 28 0.0 0.0 0.00 0.00 0.00 85 974.8
20260506100038 55 28 0.0 0.0 0.00 0.00 0.00 85 974.8
20260506094535 55 28 0.0 0.0 0.00 0.00 0.00 85 974.8
20260506093033 55 28 0.0 0.0 0.00 0.00 0.00 85 974.8
20260506091532 56 28 0.0 0.0 0.00 0.00 0.00 84 974.8
20260506090029 56 28 0.0 0.0 0.00 0.00 0.00 83 974.8
20260506084536 56 28 0.0 0.0 0.00 0.00 0.00 81 974.8
20260506083031 57 30 0.0 0.0 0.00 0.00 0.00 81 974.8
20260506081525 57 30 0.0 0.0 0.00 0.00 0.00 80 974.8
20260506073021 58 30 0.0 0.0 0.00 0.00 0.00 78 974.8
20260506071520 58 30 0.0 0.0 0.00 0.00 0.00 78 974.8
20260506061516 59 30 0.0 0.0 0.00 0.00 0.00 78 974.8
20260506044516 59 30 0.0 0.0 0.00 0.00 0.00 78 974.8
20260506043013 59 30 0.0 0.0 0.00 0.00 0.00 78 974.8
20260506041521 60 30 0.0 0.0 0.00 0.00 0.00 78 974.8
20260506040012 60 30 0.0 0.0 0.00 0.00 0.00 78 974.8
20260506034514 60 30 0.0 0.0 0.00 0.00 0.00 78 974.8
20260506033012 60 30 0.0 0.0 0.00 0.00 0.00 78 974.8
20260506031512 60 30 0.0 0.0 0.00 0.00 0.00 78 974.8
20260506030010 60 30 0.0 0.0 0.00 0.00 0.00 77 974.8